Other Public Products
Issued by NWS Grand Forks, ND

Home | Current Version | Previous Version | Text Only | Print | Product List | Glossary Off
Versions: 1 2 3 4 5 6 7 8 9 10 11 12 13 14 15 16 17 18 19 20 21 22 23 24 25 26 27 28 29 30 31 32 33 34 35 36 37 38 39 40 41 42 43 44 45 46 47 48 49 50

000
FPUS83 KFGF 281631
OPUFGF
PRAIRIE TO PINES WEATHER ROUNDUP
NATIONAL WEATHER SERVICE EASTERN NORTH DAKOTA/GRAND FORKS ND
1000 AM CST WED JAN 28 2015

 **SATELLITE DATA USED TO AUGMENT SKY COVER AT AUTOMATED STATIONS**
 *****  WEATHER ACROSS EASTERN NORTH DAKOTA  *****

CITY           SKY/WX    TMP DP  RH WIND       PRES   REMARKS
GRAND FORKS    CLOUDY    33  32  96 S10       29.78F FOG     WCI  25
GRAND FORKS AF FOG       32  32 100 S8        29.78S VSB 3/4 WCI  25
GRAND CITY NWS   N/A     32 N/A N/A S12         N/A  WCI  23
BUXTON           N/A     32  32  99 S9G21       N/A  WCI  25
DEVILS LAKE    CLOUDY    30  30 100 N3        29.75R
FARGO          CLOUDY    34  31  88 S16G30    29.78F FOG     WCI  24
WAHPETON ARPT  CLOUDY    32  30  93 S15       29.80R WCI  22
$$

 *****  WEATHER ACROSS CENTRAL AND WESTERN NORTH DAKOTA  *****

CITY           SKY/WX    TMP DP  RH WIND       PRES   REMARKS
JAMESTOWN      FOG       30  30 100 S6        29.73R VSB 1/4 WCI  24
BISMARCK       PTSUNNY   33  31  92 W5        29.76R
MINOT          FOG       29  28  96 NW8       29.79R VSB 1/4 WCI  21
MINOT AFB      FRZ DRZL  30  30 100 N13       29.82R VSB 1   WCI  20
GARRISON         N/A     28  27  96 N8        29.76R WCI  20
WILLISTON      CLOUDY    31  30  96 N14       29.86R FOG     WCI  21
DICKINSON      CLOUDY    43  30  60 W18       29.78R
HETTINGER      CLOUDY    45  31  58 W14       29.81R
$$

 *****  OTHER OBSERVATIONS NORTHEAST NORTH DAKOTA  *****

CITY           SKY/WX    TMP DP  RH WIND       PRES   REMARKS
WALHALLA       FOG       32  32 100 NE3       29.80R VSB<1/4
LANGDON        FOG       32  32 100 N7        29.76R VSB<1/4
CAVALIER       FOG       32  32 100 E5        29.79S VSB<1/4
GRAFTON        NOT AVBL
CANDO          FOG       32  32 100 N8        29.78R VSB 1/2 WCI  25
FORT TOTTEN      N/A     31  31 100 CALM      29.95S
ROLLA          FOG       28  28 100 N15       29.78F VSB 1/4 WCI  17
RUGBY          CLOUDY    32  32 100 NE10      29.78R FOG     WCI  24
 ***** THE ABOVE OBSERVATIONS ARE NON NWS ARE NOT QUALITY
        CONTROLLED AND MAY MIS-REPORT RAIN FOR SNOW...
$$

 *****  OTHER OBSERVATIONS SOUTHEAST NORTH DAKOTA *****

CITY           SKY/WX    TMP DP  RH WIND       PRES   REMARKS
COOPERSTOWN    NOT AVBL
VALLEY CITY    FOG       32  32 100 S8        29.74F VSB<1/4 WCI  25
OAKES            N/A     32  32 100 CALM      29.75R FOG
GWINNER        CLOUDY    32  32 100 CALM      29.76R VSB 1/4
SHEYENNE NWR     N/A     33  32  94 S9        29.95S
BUFFALO        NOT AVBL
WYNDMERE         N/A     34  32  93 S10         N/A
 ***** THE ABOVE OBSERVATIONS ARE NON NWS ARE NOT QUALITY
       CONTROLLED AND MAY MIS-REPORT RAIN FOR SNOW...
$$

  *****  WEATHER ACROSS NORTHERN MINNESOTA  *****

CITY           SKY/WX    TMP DP  RH WIND       PRES   REMARKS
FLAG ISLAND    FOG       28  27  93 SE7       29.83F VSB 1   WCI  21
WARROAD        FOG       30  27  86 E6        29.82F VSB 1/2 WCI  24
ROSEAU         CLOUDY    32  27  80 SE6       29.81F HAZE
HALLOCK        FOG       34  32  93 S7        29.79S VSB 1
THF RVR FALLS  CLOUDY    34  30  86 S6        29.80S
HALSTAD          N/A     34  30  86 S21         N/A  WCI  22
FOSSTON        CLOUDY    32  30  93 SE8       29.79F FOG     WCI  25
BAUDETTE       CLOUDY    29  28  96 SE7       29.83F FOG     WCI  22
WASKISH        CLOUDY    30  28  93 SE8       29.83F FOG     WCI  23
CROOKSTON      CLOUDY    34  32  93 S9        29.80S FOG
$$
  *****  WEATHER ACROSS CENTRAL AND WEST MINNESOTA  *****

CITY           SKY/WX    TMP DP  RH WIND       PRES   REMARKS
BEMIDJI        CLOUDY    30  29  96 S8        29.81F FOG     WCI  23
PARK RAPIDS    CLOUDY    31  30  96 S16       29.81F FOG     WCI  20
WADENA         CLOUDY    30  28  93 SE12      29.82F FOG     WCI  21
DETROIT LAKES  CLOUDY    32  32 100 S15       29.80S FOG     WCI  22
MOORHEAD       CLOUDY    34  34 100 S15G24    29.80S FOG     WCI  24
FERGUS FALLS   CLOUDY    34  30  86 SE17      29.83R FOG     WCI  23
ELBOW LAKE     CLOUDY    32  31  95 SE22G28   29.79F FOG     WCI  19
MORRIS MN      CLOUDY    34  30  86 SE20G25   29.80S FOG     WCI  22
STAPLES        CLOUDY    28  28 100 SE10      29.85S FOG     WCI  19
WHEATON        CLOUDY    30  28  93 SE16      29.81S FOG     WCI  19
$$
  *****  WEATHER ELSEWHERE ACROSS MINNESOTA  *****

CITY           SKY/WX    TMP DP  RH WIND       PRES   REMARKS
DULUTH         CLOUDY    24  21  88 SE8       29.93F FOG     WCI  15
INTRNTL FALLS  CLOUDY    27  24  89 SE8       29.88F FOG     WCI  19
ELY            CLOUDY    27  21  80 S10       29.91F WCI  17
CLOQUET        CLOUDY    25  21  86 SE9       29.93F FOG     WCI  15
BRAINERD       CLOUDY    29  27  92 SE13G21   29.88F FOG     WCI  19
HIBBING        CLOUDY    24  20  84 SE7       29.92F WCI  16
ALEXANDRIA     CLOUDY    31  29  92 SE15      29.84F FOG     WCI  20
SAINT CLOUD    CLOUDY    30  27  88 SE16      29.91F FOG     WCI  19
MINNEAPOLIS    CLOUDY    28  24  85 SE13G22   29.97F WCI  17
$$

  *****  WEATHER ACROSS SOUTH DAKOTA  *****

CITY           SKY/WX    TMP DP  RH WIND       PRES   REMARKS
SIOUX FALLS    CLOUDY    35  31  85 S15       29.76F
BROOKINGS      NOT AVBL
WATERTOWN      PTSUNNY   33  30  88 SE13      29.72F WCI  24
HURON          PTSUNNY   35  30  82 S7        29.70F
SISSETON         N/A     32  31  96 S13       29.77F WCI  22
ABERDEEN       PTSUNNY   35  32  88 SE5       29.73F
MITCHELL       MOSUNNY   36  32  85 S10       29.71F
PIERRE         PTSUNNY   37  34  89 SW3       29.72F
MOBRIDGE       PTSUNNY   35  31  85 NW3       29.73R
RAPID CITY     CLOUDY    55  28  35 NW21      29.84R
$$

  *****  SOME WEATHER IN NEARBY STATES *****

CITY           SKY/WX    TMP DP  RH WIND       PRES   REMARKS
GLASGOW MT     CLOUDY    33  30  88 NW20G29   29.99R FOG     WCI  21
GREAT FALLS MT CLEAR     38  27  64 NW3       30.16R
CHEYENNE WY    SUNNY     45  27  49 W15       30.07F
SCOTTSBLUFF NE   N/A    N/A N/A N/A MISG      29.97S
OMAHA NE       PTSUNNY   38  30  73 SE13      29.85S
DES MOINES IA  PTSUNNY   33  28  81 SE17      29.94F FOG     WCI  22
DAVENPORT IA   MOSUNNY   28  18  66 SE20      30.14F WCI  15
CHICAGO IL     PTSUNNY   27  13  55 S12       30.26S WCI  17
EAU CLAIRE WI  CLOUDY    26  22  84 SE16      30.04F FOG     WCI  14
LA CROSSE WI   CLOUDY    29  23  78 S16       30.09F HAZE    WCI  17
$$

  *****  SOME NATIONAL WEATHER *****

CITY           SKY/WX    TMP DP  RH WIND       PRES   REMARKS
LA GUARDIA NY  MOSUNNY   24   6  46 N12       30.06R WCI  13
RALEIGH NC     SUNNY     37  13  37 NE8       30.26R
ATLANTA GA     SUNNY     42  23  46 NW8       30.28R
NEW ORLEANS LA SUNNY     58  40  51 E10       30.30R
OKLAHOMA CITY  MOSUNNY   62  39  42 S10       30.01F
ALBUQUERQUE NM MOSUNNY   43  34  70 SE7       30.29S
SALT LAKE CITY PTSUNNY   41  38  89 W3        30.27R
LOS ANGELES CA PTSUNNY   57  48  72 E3        30.16R
BOISE ID       FOG       30  30 100 CALM      30.33R VSB<1/4
SEATTLE WA     PTCLDY    45  43  93 CALM      30.36S
$$

*** WEATHER ACROSS MANITOBA...SASKATCHEWAN AND ONTARIO ***
                ***ONTARIO***

CITY           SKY/WX    TMP DP  RH WIND       PRES   REMARKS
GERALDTON      CLOUDY   N/A N/A N/A S7          N/A
THUNDER BAY    LGT SNOW  28  28 100 E12       30.06F VSB 3/4 WCI  18
SIOUX LOOKOUT  CLOUDY    27  25  93 SE6       29.90F WCI  20
TORONTO        MOSUNNY   23   5  46 N15       30.31R WCI  10
BIG TROUT LK   SUNNY     -8 -11  84 N6        30.18S WCI -21
PICKLE LAKE    LGT SNOW  23  21  93 E8        29.98F WCI  14
DRYDEN         CLOUDY    27  25  93 SE8       29.88F WCI  18
KENORA         LGT SNOW  27  25  93 SE8       29.85F FOG     WCI  18
$$
                *** MANITOBA***

CITY           SKY/WX    TMP DP  RH WIND       PRES   REMARKS
BRANDON        CLOUDY    25  25 100 NE15G21   29.87S FOG     WCI  12
DAUPHIN        LGT SNOW  14  12  92 N10       29.99R VSB 1   WCI   1
ISLAND LAKE    PTSUNNY    1  -2  85 E10       30.16R WCI -14
PILOT MOUND      N/A     28  28 100 N6          N/A  WCI  22
THE PAS        FLURRIES   0  -6  78 NE6       30.14R WCI -12
THOMPSON       FLURRIES -13 -20  70 NE6       30.25S WCI -27
WINNIPEG       FRZ DRZL  30  28  93 E6        29.86R FOG     WCI  24
LYNN LAKE      FLURRIES -13 -18  77 SE7       30.20F WCI -29
CHURCHILL      CRYSTALS -20 -29  63 W16       30.29S DRFTSNOWWCI -46
GILLAM         MOCLDY   -18 -27  63 W5        30.27S WCI -31
$$
                ***SASKATCHEWAN***

CITY           SKY/WX    TMP DP  RH WIND       PRES   REMARKS
ESTEVAN        FRZ DRZL N/A N/A N/A N13         N/A  ICE FOG
KINDERSLEY     CLOUDY    30  28  93 NW8       30.08R WCI  23
LLOYDMINSTER   CLOUDY    27  25  93 NW17G25   30.07R WCI  14
PRINCE ALBERT  CLOUDY    10   7  85 E7        30.06S WCI   0
REGINA         LGT SNOW  25  25 100 NW10      29.99R VSB 1   WCI  15



USA.gov is the U.S. government's official web portal to all federal, state and local government web resources and services.